Location: Saint-Palais-sur-Mer
(45.6429°N, 1.0859°W)
Time: 23:32:51
(UTC+01:00)

Vanguard 1 - Pass Details

Date: 13 February 2026
Orbit: 653 x 3818 km, 34.2° (Epoch: 12 March)

Event Time Altitude Azimuth Distance (km) Brightness Sun altitude
Rises 23:44:54 0° 280° (W) 7,427 15.0 -52.2°
Reaches altitude 10° 23:50:17 10° 273° (W) 6,661 14.5 -52.8°
Enters shadow 00:06:27 35° 230° (SW) 5,106 13.4 -54.4°
